Theta_e
296 296 296 296 295 295 295 294 294 294 294 293 293 293 293 292 292 292 292 292 290 289 288 288 288 287 287 287 287 287 287 288 288 288 287 287 287 286 285 285 285 285
296 296 296 295 295 295 295 295 295 294 294 294 293 293 293 292 292 292 292 292 291 289 288 288 287 287 287 287 286 287 287 287 287 287 287 286 286 285 285 285 285 284
296 295 295 295 295 295 295 294 294 294 294 294 293 293 292 292 292 292 292 291 291 290 288 288 287 287 286 286 286 286 286 287 287 286 286 286 286 285 285 284 284 284
295 295 295 295 295 294 294 293 293 293 293 293 293 293 292 292 292 291 291 291 290 289 288 288 287 286 286 286 286 286 286 286 286 286 286 285 285 284 284 284 284 284
295 295 295 295 294 294 293 293 293 293 293 293 293 292 292 291 291 291 291 290 290 289 288 287 287 286 286 285 285 285 285 285 285 285 285 284 284 284 283 284 283 283
295 295 294 294 294 293 293 293 293 293 292 292 292 292 291 291 291 291 290 290 289 288 287 287 286 286 285 285 285 285 285 285 285 285 284 284 283 283 283 283 283 283
295 295 294 294 293 293 293 293 292 292 292 292 292 291 291 291 290 290 290 290 289 288 287 287 286 286 285 285 284 284 284 284 284 284 283 283 283 283 282 282 282 283
295 294 294 293 293 292 292 292 292 292 292 292 291 291 291 291 290 290 290 290 289 288 287 286 286 286 285 285 284 284 284 284 284 283 283 282 283 283 282 282 282 282
293 293 293 293 292 292 292 292 292 292 291 291 291 290 290 290 290 290 289 289 288 287 287 286 286 285 285 285 284 284 284 283 283 283 283 283 283 282 282 282 282 282
293 293 293 292 292 292 292 292 292 291 291 291 290 290 290 290 290 289 289 289 288 287 287 286 285 285 284 284 284 284 284 283 283 282 282 283 283 283 282 282 282 282
293 292 292 292 292 292 292 292 292 291 290 290 290 289 289 289 289 288 288 288 288 287 287 286 285 285 284 284 284 284 284 283 283 282 282 282 282 282 283 282 282 282
292 292 292 292 292 292 292 292 291 290 290 289 289 289 289 288 288 288 288 288 288 288 287 286 285 285 284 284 284 283 283 283 282 282 282 282 282 282 282 282 282 282
292 292 292 292 292 292 291 291 291 290 289 289 289 288 288 288 287 287 287 288 288 287 286 286 285 284 284 283 283 283 283 282 282 281 281 281 281 281 282 282 282 282
292 292 292 292 292 291 291 290 290 290 289 289 288 288 288 287 287 287 287 287 287 286 286 285 285 284 283 283 283 282 282 281 281 281 280 280 281 281 281 281 281 281
292 292 292 291 291 290 290 290 290 289 289 288 288 287 287 287 287 287 286 286 285 285 284 284 284 283 283 283 282 282 281 280 280 280 280 280 280 280 280 280 280 280
291 291 291 291 290 290 290 289 289 289 288 288 287 287 287 286 286 286 285 285 284 284 283 283 283 282 282 283 283 282 281 280 280 280 280 280 280 279 278 278 279 279
291 291 290 290 290 290 290 289 289 288 288 287 287 286 286 286 285 285 285 284 284 284 283 283 282 282 282 282 282 282 281 280 280 280 279 279 279 279 278 277 277 277
290 290 290 290 289 289 289 289 288 288 287 286 286 286 285 285 285 284 284 284 284 283 283 282 282 282 282 282 281 281 281 280 280 279 279 278 278 278 278 277 276 276
290 290 289 289 289 289 288 288 287 287 287 286 285 285 285 284 284 284 284 283 283 282 282 282 281 281 281 281 281 280 280 280 279 279 279 278 278 277 277 276 275 275
289 289 289 289 288 288 288 287 287 287 286 286 285 284 284 284 283 283 283 283 282 282 281 281 280 280 280 280 280 280 279 279 279 279 278 278 277 277 276 276 275 275
289 289 289 288 288 287 287 286 286 286 285 285 284 284 283 283 283 282 282 282 281 281 280 280 280 279 280 280 281 280 279 278 278 277 277 277 276 276 276 276 276 276
288 288 288 287 287 287 286 286 285 285 284 284 284 283 283 282 282 282 281 281 281 280 280 279 279 279 280 281 281 281 279 278 277 277 276 276 275 275 275 275 276 276
288 287 287 287 287 286 285 285 284 284 284 283 283 282 282 281 281 281 281 280 280 279 279 279 278 278 280 281 282 282 280 278 276 276 275 275 275 275 275 275 276 276
288 287 287 286 286 285 285 284 283 283 283 282 282 282 281 281 280 280 280 280 279 279 279 278 278 278 280 282 282 282 280 278 276 275 275 275 275 275 275 276 276 276
287 287 287 286 285 285 284 283 283 282 282 282 281 281 281 280 280 279 279 279 278 278 278 278 278 278 280 282 283 282 281 278 276 276 275 275 276 276 276 276 275 275
287 287 287 286 285 285 284 283 283 282 281 281 280 280 280 279 279 279 278 278 277 277 277 277 277 277 280 282 283 283 281 278 276 276 276 276 276 276 275 275 275 275
Wind_Speed
44 44 44 43 43 42 41 41 42 42 43 44 45 46 46 46 46 47 48 47 46 45 44 42 41 39 38 37 35 34 33 31 29 27 25 24 22 21 20 18 17 16
44 43 43 42 42 43 43 43 43 44 44 44 45 44 43 44 45 46 48 48 47 46 45 44 43 41 40 39 37 36 35 33 31 29 28 26 25 23 21 19 18 17
44 44 44 45 45 44 43 42 42 43 43 43 44 43 43 44 44 46 47 48 48 47 46 45 44 43 41 40 39 38 37 36 33 31 30 28 26 24 22 20 19 19
46 47 47 47 46 43 41 40 41 42 43 43 44 44 43 43 43 45 46 47 48 47 47 46 45 44 42 41 40 39 38 36 34 33 32 29 27 25 23 22 21 20
47 47 47 46 45 42 40 41 43 43 43 43 43 43 43 42 43 44 45 46 47 46 46 46 45 45 43 42 41 40 39 37 35 34 32 30 28 26 25 24 23 22
44 45 46 46 45 42 41 43 44 43 43 43 43 42 43 43 43 44 45 46 46 46 46 45 45 44 43 42 41 40 39 38 36 35 33 31 29 27 26 26 25 25
44 45 46 45 42 41 42 42 42 42 43 43 42 42 43 44 44 45 46 46 46 45 45 45 45 45 44 43 41 40 39 38 37 36 34 32 30 29 29 28 27 26
44 43 42 41 41 41 41 42 42 43 43 43 43 43 44 45 45 45 45 46 45 45 45 45 45 45 45 44 43 41 40 38 38 36 35 33 32 31 31 29 28 27
41 40 39 39 41 42 43 43 44 44 43 43 44 43 43 44 45 45 46 46 46 45 45 45 46 46 46 45 45 43 41 40 39 38 37 36 35 34 33 31 29 28
39 38 38 39 41 43 44 45 45 43 43 44 43 43 43 44 45 45 46 46 46 46 46 47 47 47 47 46 46 45 43 42 41 40 39 38 37 36 34 32 31 29
39 38 39 40 42 44 46 46 45 43 43 43 43 43 44 45 45 45 45 46 48 48 49 49 49 49 48 48 47 46 44 43 42 41 40 38 37 36 34 33 31 30
39 38 40 43 45 46 46 45 44 43 42 43 44 44 44 45 45 46 47 48 49 50 50 50 50 50 50 49 48 47 45 44 42 41 40 38 36 35 34 33 31 30
38 39 42 44 46 46 44 42 42 42 42 43 43 44 44 44 45 46 48 50 50 50 50 51 50 50 50 49 48 47 46 44 42 41 39 37 36 35 34 32 31 29
38 39 42 43 43 41 39 39 40 41 43 42 42 43 44 45 46 47 47 47 48 49 49 50 50 50 49 48 47 46 45 44 42 41 39 37 36 34 33 32 30 29
36 38 40 39 37 37 38 39 40 41 42 42 43 44 45 45 45 45 45 45 44 45 45 46 47 48 49 49 48 46 45 43 42 41 39 38 36 34 33 32 30 29
33 35 35 35 36 37 38 39 39 40 40 42 43 43 43 43 43 43 44 44 43 42 43 44 45 46 48 49 50 48 46 43 42 41 40 38 37 35 33 31 30 29
32 32 33 34 36 37 37 37 38 38 39 40 41 41 41 42 42 43 44 44 44 44 45 45 45 45 46 48 49 48 46 45 43 41 40 38 37 36 34 32 30 28
30 30 31 33 35 35 36 36 36 37 38 38 39 41 41 41 42 44 44 44 44 45 46 46 46 46 47 48 48 48 46 45 43 42 40 39 37 36 34 32 30 28
28 28 30 32 33 34 34 34 35 36 38 39 39 40 40 41 42 43 43 43 44 44 44 44 43 44 46 47 47 47 46 45 43 42 41 39 37 36 33 32 31 30
25 27 29 30 30 30 31 32 35 37 37 37 37 37 39 40 41 42 42 43 43 43 42 41 41 42 43 44 44 44 45 44 42 41 40 38 36 35 33 32 31 30
23 24 26 26 25 26 28 31 33 34 34 34 35 37 39 39 39 40 40 40 41 40 39 39 40 40 42 43 42 41 42 42 41 39 37 36 34 34 34 32 30 28
20 21 23 22 22 24 26 29 30 31 31 32 32 33 34 34 35 37 38 38 38 39 38 37 37 39 41 40 39 39 40 40 39 38 36 34 32 32 32 30 28 28
19 19 21 21 21 23 26 27 28 29 30 30 30 30 31 32 33 34 35 37 38 38 39 37 37 39 41 39 38 37 38 39 39 36 34 32 30 30 30 29 28 27
19 19 21 21 22 24 26 27 27 27 29 30 31 31 31 32 32 32 33 35 37 39 40 39 39 41 41 39 37 37 38 40 40 36 33 32 30 28 28 28 27 26
18 18 20 21 22 24 25 25 26 26 27 28 30 30 30 30 31 31 31 33 35 37 39 38 38 40 40 38 38 37 38 41 40 36 33 32 30 29 28 26 26 24
17 17 18 18 20 22 22 23 24 25 26 27 28 28 28 28 29 30 30 31 32 34 36 36 38 40 39 37 38 38 39 41 41 38 35 33 32 31 29 28 26 25
Wind_Direction
213 212 213 214 214 214 213 213 211 211 211 211 212 213 214 214 214 214 214 215 216 217 216 215 214 211 210 209 207 206 206 207 206 204 204 205 206 207 207 206 207 207
215 215 215 215 216 217 216 216 215 213 213 214 215 215 215 215 215 215 215 215 215 216 216 215 214 212 210 209 207 207 206 206 205 203 204 205 205 206 208 208 208 207
217 216 216 217 218 218 217 217 216 216 216 216 217 217 216 215 215 215 215 215 214 215 215 215 214 213 211 210 208 208 207 206 204 203 204 205 206 206 206 207 207 207
218 218 218 219 220 219 218 216 217 217 217 217 218 217 216 215 215 215 215 215 214 214 214 213 213 212 211 210 209 208 208 207 205 204 203 204 205 206 205 205 207 207
220 219 219 220 220 220 219 217 218 218 217 218 218 217 215 214 214 214 214 214 213 213 213 212 212 211 210 209 209 209 208 207 206 204 203 203 204 204 204 205 206 206
222 221 221 222 220 219 219 219 219 218 217 218 218 216 215 214 214 214 214 214 213 212 211 211 210 209 209 209 208 209 209 207 205 204 204 205 204 203 204 206 206 206
222 222 222 222 221 220 220 220 219 219 219 219 218 217 216 214 214 214 214 214 212 211 211 210 209 208 208 208 207 208 209 208 206 204 204 205 204 203 204 206 206 206
223 223 222 221 221 221 221 221 220 220 220 218 217 217 216 214 213 213 213 212 211 211 210 210 209 208 208 207 207 207 207 207 206 205 205 204 203 204 204 205 205 206
225 223 222 222 221 221 222 222 222 221 220 218 217 216 215 215 214 212 211 210 210 209 209 209 209 208 207 207 206 207 207 207 207 206 206 205 204 205 205 204 204 205
226 224 222 222 221 222 222 223 222 221 219 218 217 215 214 214 214 212 210 208 207 207 208 208 207 206 207 207 206 207 207 207 207 207 208 207 207 206 205 204 204 205
226 223 221 222 222 223 223 223 222 220 219 218 215 214 214 213 211 209 208 207 207 207 207 206 206 206 205 206 206 206 207 208 208 208 208 209 208 207 206 206 206 207
225 222 222 223 224 224 224 222 221 219 218 217 215 214 213 211 209 207 207 207 208 208 207 206 205 205 205 205 205 205 206 208 208 208 208 208 208 208 208 208 208 209
225 224 224 225 225 225 224 222 219 218 217 217 215 214 212 210 209 208 208 209 209 208 207 206 205 205 205 204 204 204 205 206 206 206 207 207 208 208 209 209 210 210
227 227 228 228 227 226 224 221 219 217 217 216 214 213 213 212 210 209 209 209 208 208 207 206 204 204 203 203 203 203 203 203 204 204 204 204 206 207 208 208 209 209
231 230 230 229 228 226 223 221 219 217 215 214 213 213 213 213 211 209 208 208 207 207 206 204 203 203 203 202 202 202 202 202 201 202 202 202 203 204 206 207 208 209
236 233 231 229 227 225 223 220 218 216 214 213 213 213 212 211 210 209 208 207 205 204 204 204 204 204 204 204 204 203 201 200 200 201 201 201 201 201 202 204 206 208
238 234 231 229 227 225 222 220 217 215 213 212 211 211 210 210 208 208 207 206 205 204 204 204 205 205 205 205 205 204 202 199 198 199 199 200 200 200 200 202 203 206
241 235 230 230 228 225 222 219 216 214 212 211 210 209 209 208 208 207 206 205 205 204 204 204 205 205 205 204 205 204 203 200 198 198 197 198 199 200 200 200 200 202
246 238 233 231 228 225 221 216 214 213 212 211 210 209 207 207 208 207 206 205 204 203 204 204 204 204 203 203 203 203 203 201 199 198 197 197 198 199 199 199 198 199
252 242 237 235 230 225 220 215 214 213 212 211 210 207 207 207 207 207 206 205 204 203 203 203 203 203 202 202 202 202 202 201 199 197 197 197 197 198 198 197 198 197
260 250 244 240 233 226 221 217 216 215 213 211 209 208 208 208 207 206 205 205 204 203 202 202 202 201 200 200 199 198 199 199 197 196 195 195 196 197 197 197 197 195
268 257 249 244 236 228 223 220 218 216 214 212 210 210 210 210 209 208 206 205 203 202 201 201 200 199 198 197 195 193 195 196 194 193 192 192 194 196 196 195 194 194
275 260 251 246 238 229 225 222 220 218 215 212 209 209 209 209 210 209 207 205 203 201 200 199 198 198 196 194 189 188 191 192 191 190 190 190 191 192 193 193 192 194
284 267 252 243 236 230 226 223 221 218 215 212 209 209 209 209 209 208 208 207 204 203 201 200 198 197 194 191 187 186 190 191 188 187 187 187 187 187 190 191 191 193
286 269 254 243 237 232 228 225 222 219 216 213 211 210 209 208 207 207 207 207 206 205 203 201 200 196 193 191 187 186 190 190 186 184 184 184 184 184 186 187 187 190
293 279 267 256 246 239 233 227 223 219 215 213 211 210 208 207 206 205 206 206 206 206 205 204 202 198 194 192 189 188 190 189 186 184 183 182 182 182 183 184 186 188